Weather History for Managua, Nicaragua

Change the Weather History Date:

Thursday, August 22, 2013

  Actual Average Record
Temperature  
Mean Temperature 85 °F -  
Max Temperature 93 °F 88 °F 93 °F (1997)
Min Temperature 77 °F 70 °F 71 °F (1996)
Cooling Degree Days 20    
Growing Degree Days 35 (Base 50)    
Moisture  
Dew Point 74 °F    
Average Humidity 78    
Maximum Humidity 94    
Minimum Humidity 55    
Precipitation  
Precipitation 0.00 in - - ()
Sea Level Pressure  
Sea Level Pressure 29.77 in    
Wind  
Wind Speed 6 mph ()    
Max Wind Speed 16 mph    
Max Gust Speed -    
Visibility 6.0 miles    
Events Rain , Thunderstorm    
Averages and records for this station are not official NWS values.
T = Trace of Precipitation, MM = Missing Value Source: Averaged Metar Reports

Daily Weather History Graph

Daily Weather History Graph

Search for Another Location

Airport:

Trip Planner

Search our weather history database for the weather conditions in past years. The results will help you decide how hot, cold, wet, or windy it might be!

Date:

Astronomy

Aug. 22, 2013 Rise Set
Actual Time 5:33 AM CST 6:00 PM CST
Civil Twilight 5:12 AM CST 6:22 PM CST
Nautical Twilight 4:46 AM CST 6:47 PM CST
Astronomical Twilight 4:21 AM CST 7:13 PM CST
Moon 7:18 PM CST (8/22) 6:53 AM CST (8/22)
Length of Visible Light 13h 10m
Length of Day
12h 26m
Waning Gibbous, 96% of the Moon is Illuminated
Aug 22
Waning Gibbous
Aug 28
Last Quarter
Sep 5
New
Sep 12
First Quarter
Sep 19
Full

Hourly Weather History & Observations

Time (CST) Temp. Heat Index Dew Point Humidity Pressure Visibility Wind Dir Wind Speed Gust Speed Precip Events Conditions
12:00 AM 78.8 °F - 75.2 °F 89% 29.86 in 6.2 mi ESE 9.2 mph - N/A   Mostly Cloudy
1:00 AM 78.8 °F - 75.2 °F 89% 29.83 in 6.2 mi SE 6.9 mph - N/A   Scattered Clouds
2:00 AM 78.8 °F - 75.2 °F 89% 29.80 in 6.2 mi Calm Calm - N/A   Scattered Clouds
3:00 AM 77.0 °F - 75.2 °F 94% 29.80 in 6.2 mi Calm Calm - N/A   Scattered Clouds
4:00 AM 77.0 °F - 75.2 °F 94% 29.80 in 6.2 mi Calm Calm - N/A   Scattered Clouds
5:00 AM 77.0 °F - 75.2 °F 94% 29.77 in 6.2 mi Calm Calm - N/A   Scattered Clouds
6:00 AM 77.0 °F - 73.4 °F 89% 29.80 in 6.2 mi SE 4.6 mph - N/A   Scattered Clouds
7:00 AM 78.8 °F - 75.2 °F 89% 29.80 in 6.2 mi South 4.6 mph - N/A   Mostly Cloudy
8:00 AM 84.2 °F 90.9 °F 73.4 °F 70% 29.80 in 6.2 mi ESE 6.9 mph - N/A   Scattered Clouds
9:00 AM 86.0 °F 93.4 °F 73.4 °F 66% 29.80 in 6.2 mi East 6.9 mph - N/A   Mostly Cloudy
10:00 AM 87.8 °F 95.6 °F 73.4 °F 62% 29.80 in 6.2 mi East 9.2 mph - N/A   Scattered Clouds
11:00 AM 91.4 °F 100.1 °F 73.4 °F 55% 29.77 in 6.2 mi East 9.2 mph - N/A   Mostly Cloudy
12:00 PM 93.2 °F 105.0 °F 75.2 °F 56% 29.77 in 6.2 mi East 13.8 mph - N/A   Partly Cloudy
1:00 PM 87.8 °F 97.6 °F 75.2 °F 66% 29.74 in 6.2 mi ESE 9.2 mph - N/A   Partly Cloudy
2:00 PM 91.4 °F 102.5 °F 75.2 °F 59% 29.71 in 6.2 mi ESE 9.2 mph - N/A   Partly Cloudy
3:00 PM 91.4 °F 100.1 °F 73.4 °F 55% 29.68 in 6.2 mi East 13.8 mph - N/A   Partly Cloudy
4:00 PM 91.4 °F 100.1 °F 73.4 °F 55% 29.68 in 6.2 mi ESE 11.5 mph - N/A   Partly Cloudy
5:00 PM 89.6 °F 99.8 °F 75.2 °F 62% 29.65 in 6.2 mi Calm Calm - N/A   Scattered Clouds
5:20 PM - - - N/A% - 4.3 mi ESE 16.1 mph - N/A Rain Rain
6:00 PM 80.6 °F 84.6 °F 71.6 °F 74% 29.71 in 5.6 mi East 11.5 mph - N/A Thunderstorm Thunderstorm
7:00 PM 77.0 °F - 73.4 °F 89% 29.74 in 5.0 mi SE 4.6 mph - N/A Rain , Thunderstorm Light Thunderstorms and Rain
7:25 PM - - - N/A% - 4.3 mi SE 4.6 mph - N/A   Light Drizzle
8:00 PM 77.0 °F - 75.2 °F 94% 29.77 in - South 4.6 mph - N/A   Light Drizzle
9:00 PM 77.0 °F - 75.2 °F 94% 29.77 in 6.2 mi SSE 6.9 mph - N/A   Scattered Clouds
10:00 PM 77.0 °F - 75.2 °F 94% 29.80 in 6.2 mi SSE 4.6 mph - N/A   Scattered Clouds
11:00 PM 77.0 °F - 75.2 °F 94% 29.80 in 6.2 mi South 4.6 mph - N/A   Scattered Clouds